Starlink 32496

operational
NORAD ID: 62051 Int'l Des: 2024-216 Owner: SPXS Country: US Constellation: starlink
LEOCIRCULAR

关于 Starlink 32496

正在加载描述...

实时位置

正在加载3D地球...

即将过境

高度历史

Altitude vs Time

uPlot chart will show altitude changes over time

两行轨道根数

1 62051U 24216V 25260.04888855 .00024951 00000-0 91381-3 0 9996
2 62051 42.9995 164.3851 0000803 263.6418 96.4342 15.27556456 47233
Epoch: Sep 17, 2025 • Age: 10 hours

当前状态

高度 485.1 km
速度 7.63 km/s
星下点 35.81°N, 128.35°E
发射日期 Nov 21, 2024
运行时间 0.8 years
类型 internet

技术详情

分类 Payload
质量 730.00 kg
干质量 700.00 kg
总质量 730.00 kg
长度 0.30 m
直径 4.10 m
跨度 29.00 m
形状 Box + pan
制造商 SPXS
平台类型 Starlink V2M
阶段状态 In Orbit
所有者/国家 SPXS/US

大型星座

Loading constellations...